{"data":{"norad_id":59323,"epoch":"2026-05-25T05:05:10.580928Z","epoch_age_seconds":67181,"freshness":"FRESH","line1":"1 59323U 24057D   26145.21192802  .00001399  00000+0  60367-4 0  9990","line2":"2 59323  43.0007 122.5728 0001290 267.2243  92.8460 15.27578536121454","mean_motion":15.27578536,"eccentricity":0.000129,"inclination_deg":43.0007,"raan_deg":122.5728,"arg_perigee_deg":267.2243,"mean_anomaly_deg":92.846,"bstar":6.0367e-5,"rev_number":12145,"period_min":94.266839056974,"perigee_km":482.16838621393,"apogee_km":483.93857335772,"semimajor_km":6861.1904797858,"source":"CELESTRAK","updated_at":"2026-05-25T13:38:18.903236Z"}}